Location: Iowa City
(41.6610°N, 91.5300°W)
Time: 17:33:04
(UTC-05:00)

ISS - Visible Passes

Search period start: 06 May 2016 00:00
Search period end: 16 May 2016 00:00
Orbit: 402 x 405 km, 51.6° (Epoch: 06 May)

Date Brightness Start Highest point End Pass type
(mag) Time Alt. Az. Time Alt. Az. Time Alt. Az.
06 May -0.5 05:17:17 10° SSE 05:18:29 12° SE 05:19:41 10° ESE visible
08 May -1.6 05:06:45 10° SSW 05:09:33 27° SE 05:12:22 10° ENE visible
09 May -0.9 04:15:46 12° SSE 04:17:11 14° SE 04:19:02 10° E visible
10 May -3.1 04:57:57 13° SW 05:00:42 66° SE 05:03:57 10° ENE visible
11 May -2.2 04:07:25 28° SSE 04:08:13 33° SE 04:11:11 10° ENE visible
12 May -0.9 03:16:48 15° ESE 03:16:48 15° ESE 03:18:03 10° E visible
12 May -2.9 04:49:25 15° WSW 04:51:58 54° NNW 04:55:11 10° NE visible
13 May -3.4 03:58:44 56° SW 03:59:20 81° SE 04:02:36 10° ENE visible
14 May -1.6 03:07:59 28° E 03:07:59 28° E 03:09:52 10° ENE visible
14 May -1.8 04:40:36 11° W 04:43:18 29° NNW 04:46:13 10° NE visible
15 May -2.6 03:49:48 37° WNW 03:50:32 46° NNW 03:53:42 10° NE visible
